Year,Month,Day,Hour,Minute,Value (Times are PST for temperature in C)
2021,04,15,00,00,12.30
2021,04,15,00,01,12.30
2021,04,15,00,02,12.30
2021,04,15,00,03,12.30
2021,04,15,00,04,12.30
2021,04,15,00,05,12.30
2021,04,15,00,06,12.30
2021,04,15,00,07,12.30
2021,04,15,00,08,12.30
2021,04,15,00,09,12.30
2021,04,15,00,10,12.30
2021,04,15,00,11,12.20
2021,04,15,00,12,12.20
2021,04,15,00,13,12.20
2021,04,15,00,14,12.20
2021,04,15,00,15,12.20
2021,04,15,00,16,12.20
2021,04,15,00,17,12.20
2021,04,15,00,18,12.20
2021,04,15,00,19,12.10
2021,04,15,00,20,12.10
2021,04,15,00,21,12.10
2021,04,15,00,22,12.10
2021,04,15,00,23,12.10
2021,04,15,00,24,12.10
2021,04,15,00,25,12.10
2021,04,15,00,26,12.10
2021,04,15,00,27,12.10
2021,04,15,00,28,12.00
2021,04,15,00,29,12.00
2021,04,15,00,30,11.90
2021,04,15,00,31,11.90
2021,04,15,00,32,11.80
2021,04,15,00,33,11.80
2021,04,15,00,34,11.80
2021,04,15,00,35,11.80
2021,04,15,00,36,11.70
2021,04,15,00,37,11.70
2021,04,15,00,38,11.70
2021,04,15,00,39,11.70
2021,04,15,00,40,11.60
2021,04,15,00,41,11.60
2021,04,15,00,42,11.60
2021,04,15,00,43,11.60
2021,04,15,00,44,11.60
2021,04,15,00,45,11.60
2021,04,15,00,46,11.50
2021,04,15,00,47,11.50
2021,04,15,00,48,11.40
2021,04,15,00,49,11.40
2021,04,15,00,50,11.40
2021,04,15,00,51,11.40
2021,04,15,00,52,11.30
2021,04,15,00,53,11.30
2021,04,15,00,54,11.30
2021,04,15,00,55,11.20
2021,04,15,00,56,11.10
2021,04,15,00,57,11.10
2021,04,15,00,58,11.00
2021,04,15,00,59,10.90
2021,04,15,01,00,10.90
2021,04,15,01,01,10.80
2021,04,15,01,02,10.80
2021,04,15,01,03,10.80
2021,04,15,01,04,10.80
2021,04,15,01,05,10.80
2021,04,15,01,06,10.70
2021,04,15,01,07,10.70
2021,04,15,01,08,10.70
2021,04,15,01,09,10.70
2021,04,15,01,10,10.60
2021,04,15,01,11,10.60
2021,04,15,01,12,10.60
2021,04,15,01,13,10.50
2021,04,15,01,14,10.50
2021,04,15,01,15,10.40
2021,04,15,01,16,10.40
2021,04,15,01,17,10.40
2021,04,15,01,18,10.30
2021,04,15,01,19,10.30
2021,04,15,01,20,10.40
2021,04,15,01,21,10.40
2021,04,15,01,22,10.40
2021,04,15,01,23,10.40
2021,04,15,01,24,10.40
2021,04,15,01,25,10.30
2021,04,15,01,26,10.30
2021,04,15,01,27,10.30
2021,04,15,01,28,10.30
2021,04,15,01,29,10.30
2021,04,15,01,30,10.30
2021,04,15,01,31,10.20
2021,04,15,01,32,10.20
2021,04,15,01,33,10.20
2021,04,15,01,34,10.20
2021,04,15,01,35,10.20
2021,04,15,01,36,10.20
2021,04,15,01,37,10.20
2021,04,15,01,38,10.20
2021,04,15,01,39,10.20
2021,04,15,01,40,10.20
2021,04,15,01,41,10.20
2021,04,15,01,42,10.20
2021,04,15,01,43,10.20
2021,04,15,01,44,10.20
2021,04,15,01,45,10.20
2021,04,15,01,46,10.20
2021,04,15,01,47,10.20
2021,04,15,01,48,10.20
2021,04,15,01,49,10.20
2021,04,15,01,50,10.10
2021,04,15,01,51,10.10
2021,04,15,01,52,10.10
2021,04,15,01,53,10.00
2021,04,15,01,54,10.00
2021,04,15,01,55,10.00
2021,04,15,01,56,9.90
2021,04,15,01,57,9.90
2021,04,15,01,58,9.90
2021,04,15,01,59,9.90
2021,04,15,02,00,9.90
2021,04,15,02,01,9.90
2021,04,15,02,02,9.90
2021,04,15,02,03,9.90
2021,04,15,02,04,9.90
2021,04,15,02,05,9.90
2021,04,15,02,06,9.80
2021,04,15,02,07,9.80
2021,04,15,02,08,9.80
2021,04,15,02,09,9.80
2021,04,15,02,10,9.80
2021,04,15,02,11,9.80
2021,04,15,02,12,9.80
2021,04,15,02,13,9.80
2021,04,15,02,14,9.80
2021,04,15,02,15,9.80
2021,04,15,02,16,9.80
2021,04,15,02,17,9.80
2021,04,15,02,18,9.80
2021,04,15,02,19,9.80
2021,04,15,02,20,9.70
2021,04,15,02,21,9.70
2021,04,15,02,22,9.70
2021,04,15,02,23,9.70
2021,04,15,02,24,9.70
2021,04,15,02,25,9.70
2021,04,15,02,26,9.70
2021,04,15,02,27,9.60
2021,04,15,02,28,9.60
2021,04,15,02,29,9.60
2021,04,15,02,30,9.50
2021,04,15,02,31,9.50
2021,04,15,02,32,9.40
2021,04,15,02,33,9.40
2021,04,15,02,34,9.30
2021,04,15,02,35,9.30
2021,04,15,02,36,9.20
2021,04,15,02,37,9.20
2021,04,15,02,38,9.10
2021,04,15,02,39,9.10
2021,04,15,02,40,9.10
2021,04,15,02,41,9.00
2021,04,15,02,42,9.00
2021,04,15,02,43,9.00
2021,04,15,02,44,9.00
2021,04,15,02,45,9.00
2021,04,15,02,46,9.00
2021,04,15,02,47,8.90
2021,04,15,02,48,8.90
2021,04,15,02,49,8.90
2021,04,15,02,50,8.90
2021,04,15,02,51,8.90
2021,04,15,02,52,8.80
2021,04,15,02,53,8.80
2021,04,15,02,54,8.80
2021,04,15,02,55,8.80
2021,04,15,02,56,8.80
2021,04,15,02,57,8.80
2021,04,15,02,58,8.80
2021,04,15,02,59,8.80
2021,04,15,03,00,8.80
2021,04,15,03,01,8.80
2021,04,15,03,02,8.70
2021,04,15,03,03,8.70
2021,04,15,03,04,8.70
2021,04,15,03,05,8.70
2021,04,15,03,06,8.80
2021,04,15,03,07,8.70
2021,04,15,03,08,8.70
2021,04,15,03,09,8.70
2021,04,15,03,10,8.70
2021,04,15,03,11,8.70
2021,04,15,03,12,8.70
2021,04,15,03,13,8.70
2021,04,15,03,14,8.70
2021,04,15,03,15,8.70
2021,04,15,03,16,8.70
2021,04,15,03,17,8.70
2021,04,15,03,18,8.70
2021,04,15,03,19,8.70
2021,04,15,03,20,8.60
2021,04,15,03,21,8.60
2021,04,15,03,22,8.60
2021,04,15,03,23,8.60
2021,04,15,03,24,8.50
2021,04,15,03,25,8.50
2021,04,15,03,26,8.50
2021,04,15,03,27,8.40
2021,04,15,03,28,8.40
2021,04,15,03,29,8.40
2021,04,15,03,30,8.40
2021,04,15,03,31,8.30
2021,04,15,03,32,8.30
2021,04,15,03,33,8.30
2021,04,15,03,34,8.30
2021,04,15,03,35,8.30
2021,04,15,03,36,8.20
2021,04,15,03,37,8.20
2021,04,15,03,38,8.20
2021,04,15,03,39,8.20
2021,04,15,03,40,8.20
2021,04,15,03,41,8.20
2021,04,15,03,42,8.10
2021,04,15,03,43,8.10
2021,04,15,03,44,8.10
2021,04,15,03,45,8.10
2021,04,15,03,46,8.10
2021,04,15,03,47,8.10
2021,04,15,03,48,8.10
2021,04,15,03,49,8.10
2021,04,15,03,50,8.10
2021,04,15,03,51,8.10
2021,04,15,03,52,8.10
2021,04,15,03,53,8.10
2021,04,15,03,54,8.10
2021,04,15,03,55,8.10
2021,04,15,03,56,8.10
2021,04,15,03,57,8.10
2021,04,15,03,58,8.10
2021,04,15,03,59,8.10
2021,04,15,04,00,8.10
2021,04,15,04,01,8.10
2021,04,15,04,02,8.10
2021,04,15,04,03,8.10
2021,04,15,04,04,8.10
2021,04,15,04,05,8.10
2021,04,15,04,06,8.10
2021,04,15,04,07,8.20
2021,04,15,04,08,8.10
2021,04,15,04,09,8.10
2021,04,15,04,10,8.10
2021,04,15,04,11,8.10
2021,04,15,04,12,8.10
2021,04,15,04,13,8.10
2021,04,15,04,14,8.10
2021,04,15,04,15,8.10
2021,04,15,04,16,8.00
2021,04,15,04,17,8.00
2021,04,15,04,18,8.00
2021,04,15,04,19,7.90
2021,04,15,04,20,7.90
2021,04,15,04,21,7.80
2021,04,15,04,22,7.80
2021,04,15,04,23,7.70
2021,04,15,04,24,7.70
2021,04,15,04,25,7.60
2021,04,15,04,26,7.50
2021,04,15,04,27,7.50
2021,04,15,04,28,7.40
2021,04,15,04,29,7.30
2021,04,15,04,30,7.20
2021,04,15,04,31,7.20
2021,04,15,04,32,7.20
2021,04,15,04,33,7.10
2021,04,15,04,34,7.10
2021,04,15,04,35,7.10
2021,04,15,04,36,7.00
2021,04,15,04,37,7.00
2021,04,15,04,38,7.00
2021,04,15,04,39,6.90
2021,04,15,04,40,6.90
2021,04,15,04,41,6.90
2021,04,15,04,42,7.00
2021,04,15,04,43,7.00
2021,04,15,04,44,7.00
2021,04,15,04,45,7.00
2021,04,15,04,46,7.00
2021,04,15,04,47,7.00
2021,04,15,04,48,7.00
2021,04,15,04,49,7.00
2021,04,15,04,50,7.00
2021,04,15,04,51,7.10
2021,04,15,04,52,7.10
2021,04,15,04,53,7.10
2021,04,15,04,54,7.10
2021,04,15,04,55,7.10
2021,04,15,04,56,7.10
2021,04,15,04,57,7.10
2021,04,15,04,58,7.10
2021,04,15,04,59,7.00
2021,04,15,05,00,7.00
2021,04,15,05,01,7.00
2021,04,15,05,02,7.00
2021,04,15,05,03,7.00
2021,04,15,05,04,6.90
2021,04,15,05,05,6.90
2021,04,15,05,06,6.90
2021,04,15,05,07,6.90
2021,04,15,05,08,6.80
2021,04,15,05,09,6.80
2021,04,15,05,10,6.80
2021,04,15,05,11,6.80
2021,04,15,05,12,6.80
2021,04,15,05,13,6.80
2021,04,15,05,14,6.80
2021,04,15,05,15,6.80
2021,04,15,05,16,6.80
2021,04,15,05,17,6.80
2021,04,15,05,18,6.80
2021,04,15,05,19,6.80
2021,04,15,05,20,6.80
2021,04,15,05,21,6.80
2021,04,15,05,22,6.80
2021,04,15,05,23,6.80
2021,04,15,05,24,6.80
2021,04,15,05,25,6.70
2021,04,15,05,26,6.70
2021,04,15,05,27,6.70
2021,04,15,05,28,6.70
2021,04,15,05,29,6.60
2021,04,15,05,30,6.60
2021,04,15,05,31,6.60
2021,04,15,05,32,6.50
2021,04,15,05,33,6.50
2021,04,15,05,34,6.50
2021,04,15,05,35,6.40
2021,04,15,05,36,6.40
2021,04,15,05,37,6.40
2021,04,15,05,38,6.40
2021,04,15,05,39,6.40
2021,04,15,05,40,6.30
2021,04,15,05,41,6.30
2021,04,15,05,42,6.40
2021,04,15,05,43,6.40
2021,04,15,05,44,6.40
2021,04,15,05,45,6.40
2021,04,15,05,46,6.40
2021,04,15,05,47,6.40
2021,04,15,05,48,6.40
2021,04,15,05,49,6.30
2021,04,15,05,50,6.30
2021,04,15,05,51,6.30
2021,04,15,05,52,6.30
2021,04,15,05,53,6.30
2021,04,15,05,54,6.20
2021,04,15,05,55,6.20
2021,04,15,05,56,6.20
2021,04,15,05,57,6.20
2021,04,15,05,58,6.20
2021,04,15,05,59,6.20
2021,04,15,06,00,6.20
2021,04,15,06,01,6.20
2021,04,15,06,02,6.20
2021,04,15,06,03,6.20
2021,04,15,06,04,6.30
2021,04,15,06,05,6.30
2021,04,15,06,06,6.30
2021,04,15,06,07,6.30
2021,04,15,06,08,6.40
2021,04,15,06,09,6.40
2021,04,15,06,10,6.40
2021,04,15,06,11,6.40
2021,04,15,06,12,6.40
2021,04,15,06,13,6.50
2021,04,15,06,14,6.50
2021,04,15,06,15,6.50
2021,04,15,06,16,6.50
2021,04,15,06,17,6.50
2021,04,15,06,18,6.50
2021,04,15,06,19,6.50
2021,04,15,06,20,6.60
2021,04,15,06,21,6.60
2021,04,15,06,22,6.60
2021,04,15,06,23,6.70
2021,04,15,06,24,6.70
2021,04,15,06,25,6.70
2021,04,15,06,26,6.70
2021,04,15,06,27,6.70
2021,04,15,06,28,6.70
2021,04,15,06,29,6.80
2021,04,15,06,30,6.80
2021,04,15,06,31,6.80
2021,04,15,06,32,6.90
2021,04,15,06,33,6.90
2021,04,15,06,34,6.90
2021,04,15,06,35,6.90
2021,04,15,06,36,6.90
2021,04,15,06,37,6.90
2021,04,15,06,38,7.00
2021,04,15,06,39,7.00
2021,04,15,06,40,7.10
2021,04,15,06,41,7.10
2021,04,15,06,42,7.10
2021,04,15,06,43,7.20
2021,04,15,06,44,7.20
2021,04,15,06,45,7.30
2021,04,15,06,46,7.30
2021,04,15,06,47,7.30
2021,04,15,06,48,7.40
2021,04,15,06,49,7.40
2021,04,15,06,50,7.40
2021,04,15,06,51,7.40
2021,04,15,06,52,7.40
2021,04,15,06,53,7.50
2021,04,15,06,54,7.50
2021,04,15,06,55,7.50
2021,04,15,06,56,7.50
2021,04,15,06,57,7.50
2021,04,15,06,58,7.50
2021,04,15,06,59,7.50
2021,04,15,07,00,7.50
2021,04,15,07,01,7.50
2021,04,15,07,02,7.60
2021,04,15,07,03,7.60
2021,04,15,07,04,7.60
2021,04,15,07,05,7.60
2021,04,15,07,06,7.70
2021,04,15,07,07,7.70
2021,04,15,07,08,7.70
2021,04,15,07,09,7.70
2021,04,15,07,10,7.70
2021,04,15,07,11,7.70
2021,04,15,07,12,7.70
2021,04,15,07,13,7.80
2021,04,15,07,14,7.80
2021,04,15,07,15,7.80
2021,04,15,07,16,7.80
2021,04,15,07,17,7.80
2021,04,15,07,18,7.90
2021,04,15,07,19,7.90
2021,04,15,07,20,7.90
2021,04,15,07,21,7.90
2021,04,15,07,22,8.00
2021,04,15,07,23,8.00
2021,04,15,07,24,8.00
2021,04,15,07,25,8.10
2021,04,15,07,26,8.10
2021,04,15,07,27,8.20
2021,04,15,07,28,8.30
2021,04,15,07,29,8.30
2021,04,15,07,30,8.40
2021,04,15,07,31,8.40
2021,04,15,07,32,8.50
2021,04,15,07,33,8.60
2021,04,15,07,34,8.70
2021,04,15,07,35,8.70
2021,04,15,07,36,8.80
2021,04,15,07,37,8.90
2021,04,15,07,38,9.00
2021,04,15,07,39,9.10
2021,04,15,07,40,9.20
2021,04,15,07,41,9.30
2021,04,15,07,42,9.30
2021,04,15,07,43,9.40
2021,04,15,07,44,9.40
2021,04,15,07,45,9.50
2021,04,15,07,46,9.50
2021,04,15,07,47,9.60
2021,04,15,07,48,9.70
2021,04,15,07,49,9.70
2021,04,15,07,50,9.80
2021,04,15,07,51,9.80
2021,04,15,07,52,9.80
2021,04,15,07,53,9.90
2021,04,15,07,54,9.90
2021,04,15,07,55,10.00
2021,04,15,07,56,10.00
2021,04,15,07,57,10.20
2021,04,15,07,58,10.20
2021,04,15,07,59,10.30
2021,04,15,08,00,10.40
2021,04,15,08,01,10.50
2021,04,15,08,02,10.50
2021,04,15,08,03,10.60
2021,04,15,08,04,10.70
2021,04,15,08,05,10.80
2021,04,15,08,06,10.80
2021,04,15,08,07,10.90
2021,04,15,08,08,11.00
2021,04,15,08,09,11.10
2021,04,15,08,10,11.20
2021,04,15,08,11,11.20
2021,04,15,08,12,11.20
2021,04,15,08,13,11.30
2021,04,15,08,14,11.30
2021,04,15,08,15,11.30
2021,04,15,08,16,11.30
2021,04,15,08,17,11.30
2021,04,15,08,18,11.40
2021,04,15,08,19,11.40
2021,04,15,08,20,11.40
2021,04,15,08,21,11.50
2021,04,15,08,22,11.50
2021,04,15,08,23,11.50
2021,04,15,08,24,11.60
2021,04,15,08,25,11.60
2021,04,15,08,26,11.70
2021,04,15,08,27,11.80
2021,04,15,08,28,11.90
2021,04,15,08,29,12.00
2021,04,15,08,30,12.00
2021,04,15,08,31,12.10
2021,04,15,08,32,12.10
2021,04,15,08,33,12.10
2021,04,15,08,34,12.10
2021,04,15,08,35,12.10
2021,04,15,08,36,12.10
2021,04,15,08,37,12.10
2021,04,15,08,38,12.10
2021,04,15,08,39,12.00
2021,04,15,08,40,12.00
2021,04,15,08,41,11.90
2021,04,15,08,42,11.90
2021,04,15,08,43,11.80
2021,04,15,08,44,11.80
2021,04,15,08,45,11.80
2021,04,15,08,46,11.80
2021,04,15,08,47,11.80
2021,04,15,08,48,11.80
2021,04,15,08,49,11.90
2021,04,15,08,50,11.90
2021,04,15,08,51,11.90
2021,04,15,08,52,11.90
2021,04,15,08,53,11.90
2021,04,15,08,54,11.90
2021,04,15,08,55,11.90
2021,04,15,08,56,11.80
2021,04,15,08,57,11.80
2021,04,15,08,58,11.90
2021,04,15,08,59,11.90
2021,04,15,09,00,12.00
2021,04,15,09,01,12.10
2021,04,15,09,02,12.20
2021,04,15,09,03,12.20
2021,04,15,09,04,12.20
2021,04,15,09,05,12.20
2021,04,15,09,06,12.30
2021,04,15,09,07,12.30
2021,04,15,09,08,12.30
2021,04,15,09,09,12.40
2021,04,15,09,10,12.60
2021,04,15,09,11,12.80
2021,04,15,09,12,13.00
2021,04,15,09,13,13.20
2021,04,15,09,14,13.40
2021,04,15,09,15,13.60
2021,04,15,09,16,13.80
2021,04,15,09,17,13.90
2021,04,15,09,18,14.00
2021,04,15,09,19,14.10
2021,04,15,09,20,14.10
2021,04,15,09,21,14.10
2021,04,15,09,22,14.10
2021,04,15,09,23,14.10
2021,04,15,09,24,14.10
2021,04,15,09,25,14.10
2021,04,15,09,26,14.10
2021,04,15,09,27,14.10
2021,04,15,09,28,14.10
2021,04,15,09,29,14.20
2021,04,15,09,30,14.20
2021,04,15,09,31,14.20
2021,04,15,09,32,14.30
2021,04,15,09,33,14.30
2021,04,15,09,34,14.30
2021,04,15,09,35,14.30
2021,04,15,09,36,14.30
2021,04,15,09,37,14.30
2021,04,15,09,38,14.40
2021,04,15,09,39,14.40
2021,04,15,09,40,14.40
2021,04,15,09,41,14.50
2021,04,15,09,42,14.60
2021,04,15,09,43,14.60
2021,04,15,09,44,14.70
2021,04,15,09,45,14.80
2021,04,15,09,46,14.90
2021,04,15,09,47,15.00
2021,04,15,09,48,15.10
2021,04,15,09,49,15.20
2021,04,15,09,50,15.30
2021,04,15,09,51,15.30
2021,04,15,09,52,15.30
2021,04,15,09,53,15.30
2021,04,15,09,54,15.30
2021,04,15,09,55,15.40
2021,04,15,09,56,15.40
2021,04,15,09,57,15.40
2021,04,15,09,58,15.40
2021,04,15,09,59,15.40
2021,04,15,10,00,15.50
2021,04,15,10,01,15.50
2021,04,15,10,02,15.60
2021,04,15,10,03,15.60
2021,04,15,10,04,15.70
2021,04,15,10,05,15.70
2021,04,15,10,06,15.80
2021,04,15,10,07,15.80
2021,04,15,10,08,15.90
2021,04,15,10,09,16.00
2021,04,15,10,10,16.00
2021,04,15,10,11,16.10
2021,04,15,10,12,16.10
2021,04,15,10,13,16.10
2021,04,15,10,14,16.20
2021,04,15,10,15,16.20
2021,04,15,10,16,16.30
2021,04,15,10,17,16.40
2021,04,15,10,18,16.40
2021,04,15,10,19,16.60
2021,04,15,10,20,16.70
2021,04,15,10,21,16.80
2021,04,15,10,22,17.00
2021,04,15,10,23,17.10
2021,04,15,10,24,17.20
2021,04,15,10,25,17.40
2021,04,15,10,26,17.50
2021,04,15,10,27,17.50
2021,04,15,10,28,17.50
2021,04,15,10,29,17.40
2021,04,15,10,30,17.30
2021,04,15,10,31,17.20
2021,04,15,10,32,17.20
2021,04,15,10,33,17.20
2021,04,15,10,34,17.10
2021,04,15,10,35,17.10
2021,04,15,10,36,17.10
2021,04,15,10,37,17.10
2021,04,15,10,38,17.10
2021,04,15,10,39,17.10
2021,04,15,10,40,17.10
2021,04,15,10,41,17.10
2021,04,15,10,42,17.10
2021,04,15,10,43,17.10
2021,04,15,10,44,17.10
2021,04,15,10,45,17.10
2021,04,15,10,46,17.20
2021,04,15,10,47,17.20
2021,04,15,10,48,17.30
2021,04,15,10,49,17.40
2021,04,15,10,50,17.40
2021,04,15,10,51,17.40
2021,04,15,10,52,17.40
2021,04,15,10,53,17.30
2021,04,15,10,54,17.30
2021,04,15,10,55,17.30
2021,04,15,10,56,17.30
2021,04,15,10,57,17.30
2021,04,15,10,58,17.40
2021,04,15,10,59,17.40
2021,04,15,11,00,17.40
2021,04,15,11,01,17.50
2021,04,15,11,02,17.50
2021,04,15,11,03,17.60
2021,04,15,11,04,17.70
2021,04,15,11,05,17.80
2021,04,15,11,06,17.80
2021,04,15,11,07,17.90
2021,04,15,11,08,18.00
2021,04,15,11,09,18.10
2021,04,15,11,10,18.20
2021,04,15,11,11,18.30
2021,04,15,11,12,18.40
2021,04,15,11,13,18.40
2021,04,15,11,14,18.40
2021,04,15,11,15,18.40
2021,04,15,11,16,18.50
2021,04,15,11,17,18.50
2021,04,15,11,18,18.50
2021,04,15,11,19,18.60
2021,04,15,11,20,18.60
2021,04,15,11,21,18.70
2021,04,15,11,22,18.80
2021,04,15,11,23,18.90
2021,04,15,11,24,18.90
2021,04,15,11,25,18.80
2021,04,15,11,26,18.70
2021,04,15,11,27,18.60
2021,04,15,11,28,18.40
2021,04,15,11,29,18.30
2021,04,15,11,30,18.10
2021,04,15,11,31,18.00
2021,04,15,11,32,17.90
2021,04,15,11,33,17.90
2021,04,15,11,34,17.80
2021,04,15,11,35,17.80
2021,04,15,11,36,17.70
2021,04,15,11,37,17.70
2021,04,15,11,38,17.60
2021,04,15,11,39,17.60
2021,04,15,11,40,17.60
2021,04,15,11,41,17.60
2021,04,15,11,42,17.50
2021,04,15,11,43,17.50
2021,04,15,11,44,17.60
2021,04,15,11,45,17.60
2021,04,15,11,46,17.70
2021,04,15,11,47,17.70
2021,04,15,11,48,17.70
2021,04,15,11,49,17.80
2021,04,15,11,50,17.80
2021,04,15,11,51,17.80
2021,04,15,11,52,17.80
2021,04,15,11,53,17.80
2021,04,15,11,54,17.80
2021,04,15,11,55,17.80
2021,04,15,11,56,17.80
2021,04,15,11,57,17.80
2021,04,15,11,58,17.80
2021,04,15,11,59,17.80
2021,04,15,12,00,17.80
2021,04,15,12,01,17.80
2021,04,15,12,02,17.80
2021,04,15,12,03,17.80
2021,04,15,12,04,17.80
2021,04,15,12,05,17.80
2021,04,15,12,06,17.80
2021,04,15,12,07,17.80
2021,04,15,12,08,17.80
2021,04,15,12,09,17.90
2021,04,15,12,10,17.90
2021,04,15,12,11,18.00
2021,04,15,12,12,18.00
2021,04,15,12,13,18.00
2021,04,15,12,14,18.00
2021,04,15,12,15,18.10
2021,04,15,12,16,18.10
2021,04,15,12,17,18.00
2021,04,15,12,18,18.00
2021,04,15,12,19,18.10
2021,04,15,12,20,18.10
2021,04,15,12,21,18.10
2021,04,15,12,22,18.20
2021,04,15,12,23,18.20
2021,04,15,12,24,18.20
2021,04,15,12,25,18.10
2021,04,15,12,26,18.00
2021,04,15,12,27,18.00
2021,04,15,12,28,18.00
2021,04,15,12,29,18.00
2021,04,15,12,30,18.10
2021,04,15,12,31,18.10
2021,04,15,12,32,18.10
2021,04,15,12,33,18.10
2021,04,15,12,34,18.10
2021,04,15,12,35,18.10
2021,04,15,12,36,18.10
2021,04,15,12,37,18.20
2021,04,15,12,38,18.20
2021,04,15,12,39,18.20
2021,04,15,12,40,18.20
2021,04,15,12,41,18.20
2021,04,15,12,42,18.30
2021,04,15,12,43,18.30
2021,04,15,12,44,18.40
2021,04,15,12,45,18.40
2021,04,15,12,46,18.50
2021,04,15,12,47,18.50
2021,04,15,12,48,18.60
2021,04,15,12,49,18.60
2021,04,15,12,50,18.70
2021,04,15,12,51,18.70
2021,04,15,12,52,18.70
2021,04,15,12,53,18.80
2021,04,15,12,54,18.80
2021,04,15,12,55,18.90
2021,04,15,12,56,19.00
2021,04,15,12,57,19.10
2021,04,15,12,58,19.20
2021,04,15,12,59,19.30
2021,04,15,13,00,19.30
2021,04,15,13,01,19.30
2021,04,15,13,02,19.30
2021,04,15,13,03,19.30
2021,04,15,13,04,19.30
2021,04,15,13,05,19.30
2021,04,15,13,06,19.30
2021,04,15,13,07,19.30
2021,04,15,13,08,19.30
2021,04,15,13,09,19.30
2021,04,15,13,10,19.30
2021,04,15,13,11,19.30
2021,04,15,13,12,19.40
2021,04,15,13,13,19.40
2021,04,15,13,14,19.40
2021,04,15,13,15,19.40
2021,04,15,13,16,19.30
2021,04,15,13,17,19.30
2021,04,15,13,18,19.30
2021,04,15,13,19,19.30
2021,04,15,13,20,19.30
2021,04,15,13,21,19.40
2021,04,15,13,22,19.40
2021,04,15,13,23,19.50
2021,04,15,13,24,19.50
2021,04,15,13,25,19.50
2021,04,15,13,26,19.50
2021,04,15,13,27,19.50
2021,04,15,13,28,19.50
2021,04,15,13,29,19.40
2021,04,15,13,30,19.40
2021,04,15,13,31,19.40
2021,04,15,13,32,19.40
2021,04,15,13,33,19.40
2021,04,15,13,34,19.40
2021,04,15,13,35,19.50
2021,04,15,13,36,19.50
2021,04,15,13,37,19.50
2021,04,15,13,38,19.60
2021,04,15,13,39,19.60
2021,04,15,13,40,19.60
2021,04,15,13,41,19.60
2021,04,15,13,42,19.60
2021,04,15,13,43,19.60
2021,04,15,13,44,19.60
2021,04,15,13,45,19.60
2021,04,15,13,46,19.50
2021,04,15,13,47,19.50
2021,04,15,13,48,19.60
2021,04,15,13,49,19.60
2021,04,15,13,50,19.50
2021,04,15,13,51,19.50
2021,04,15,13,52,19.50
2021,04,15,13,53,19.60
2021,04,15,13,54,19.60
2021,04,15,13,55,19.60
2021,04,15,13,56,19.70
2021,04,15,13,57,19.70
2021,04,15,13,58,19.70
2021,04,15,13,59,19.60
2021,04,15,14,00,19.60
2021,04,15,14,01,19.60
2021,04,15,14,02,19.60
2021,04,15,14,03,19.60
2021,04,15,14,04,19.60
2021,04,15,14,05,19.70
2021,04,15,14,06,19.70
2021,04,15,14,07,19.70
2021,04,15,14,08,19.80
2021,04,15,14,09,19.80
2021,04,15,14,10,19.80
2021,04,15,14,11,19.80
2021,04,15,14,12,19.80
2021,04,15,14,13,19.80
2021,04,15,14,14,19.80
2021,04,15,14,15,19.80
2021,04,15,14,16,19.80
2021,04,15,14,17,19.90
2021,04,15,14,18,19.90
2021,04,15,14,19,20.00
2021,04,15,14,20,20.00
2021,04,15,14,21,20.00
2021,04,15,14,22,20.00
2021,04,15,14,23,20.00
2021,04,15,14,24,20.00
2021,04,15,14,25,20.10
2021,04,15,14,26,20.10
2021,04,15,14,27,20.20
2021,04,15,14,28,20.20
2021,04,15,14,29,20.20
2021,04,15,14,30,20.20
2021,04,15,14,31,20.20
2021,04,15,14,32,20.20
2021,04,15,14,33,20.10
2021,04,15,14,34,20.10
2021,04,15,14,35,20.00
2021,04,15,14,36,20.00
2021,04,15,14,37,20.00
2021,04,15,14,38,19.90
2021,04,15,14,39,19.90
2021,04,15,14,40,19.90
2021,04,15,14,41,20.00
2021,04,15,14,42,20.00
2021,04,15,14,43,20.10
2021,04,15,14,44,20.10
2021,04,15,14,45,20.10
2021,04,15,14,46,20.20
2021,04,15,14,47,20.20
2021,04,15,14,48,20.20
2021,04,15,14,49,20.20
2021,04,15,14,50,20.20
2021,04,15,14,51,20.10
2021,04,15,14,52,20.10
2021,04,15,14,53,20.10
2021,04,15,14,54,20.10
2021,04,15,14,55,20.20
2021,04,15,14,56,20.20
2021,04,15,14,57,20.20
2021,04,15,14,58,20.20
2021,04,15,14,59,20.20
2021,04,15,15,00,20.20
2021,04,15,15,01,20.30
2021,04,15,15,02,20.30
2021,04,15,15,03,20.30
2021,04,15,15,04,20.30
2021,04,15,15,05,20.30
2021,04,15,15,06,20.40
2021,04,15,15,07,20.40
2021,04,15,15,08,20.40
2021,04,15,15,09,20.40
2021,04,15,15,10,20.40
2021,04,15,15,11,20.30
2021,04,15,15,12,20.30
2021,04,15,15,13,20.30
2021,04,15,15,14,20.30
2021,04,15,15,15,20.30
2021,04,15,15,16,20.40
2021,04,15,15,17,20.40
2021,04,15,15,18,20.40
2021,04,15,15,19,20.40
2021,04,15,15,20,20.50
2021,04,15,15,21,20.50
2021,04,15,15,22,20.60
2021,04,15,15,23,20.60
2021,04,15,15,24,20.70
2021,04,15,15,25,20.70
2021,04,15,15,26,20.80
2021,04,15,15,27,20.80
2021,04,15,15,28,20.80
2021,04,15,15,29,20.80
2021,04,15,15,30,20.80
2021,04,15,15,31,20.80
2021,04,15,15,32,20.90
2021,04,15,15,33,20.90
2021,04,15,15,34,20.90
2021,04,15,15,35,21.00
2021,04,15,15,36,21.00
2021,04,15,15,37,21.00
2021,04,15,15,38,21.00
2021,04,15,15,39,21.00
2021,04,15,15,40,21.00
2021,04,15,15,41,21.00
2021,04,15,15,42,21.10
2021,04,15,15,43,21.10
2021,04,15,15,44,21.10
2021,04,15,15,45,21.20
2021,04,15,15,46,21.20
2021,04,15,15,47,21.20
2021,04,15,15,48,21.20
2021,04,15,15,49,21.20
2021,04,15,15,50,21.20
2021,04,15,15,51,21.20
2021,04,15,15,52,21.20
2021,04,15,15,53,21.20
2021,04,15,15,54,21.20
2021,04,15,15,55,21.30
2021,04,15,15,56,21.30
2021,04,15,15,57,21.30
2021,04,15,15,58,21.30
2021,04,15,15,59,21.40
2021,04,15,16,00,21.40
2021,04,15,16,01,21.40
2021,04,15,16,02,21.40
2021,04,15,16,03,21.40
2021,04,15,16,04,21.40
2021,04,15,16,05,21.50
2021,04,15,16,06,21.50
2021,04,15,16,07,21.50
2021,04,15,16,08,21.60
2021,04,15,16,09,21.60
2021,04,15,16,10,21.60
2021,04,15,16,11,21.60
2021,04,15,16,12,21.60
2021,04,15,16,13,21.60
2021,04,15,16,14,21.60
2021,04,15,16,15,21.60
2021,04,15,16,16,21.60
2021,04,15,16,17,21.60
2021,04,15,16,18,21.60
2021,04,15,16,19,21.60
2021,04,15,16,20,21.60
2021,04,15,16,21,21.60
2021,04,15,16,22,21.70
2021,04,15,16,23,21.70
2021,04,15,16,24,21.80
2021,04,15,16,25,21.80
2021,04,15,16,26,21.80
2021,04,15,16,27,21.80
2021,04,15,16,28,21.80
2021,04,15,16,29,21.80
2021,04,15,16,30,21.90
2021,04,15,16,31,21.90
2021,04,15,16,32,22.00
2021,04,15,16,33,22.00
2021,04,15,16,34,22.10
2021,04,15,16,35,22.10
2021,04,15,16,36,22.20
2021,04,15,16,37,22.20
2021,04,15,16,38,22.30
2021,04,15,16,39,22.30
2021,04,15,16,40,22.30
2021,04,15,16,41,22.30
2021,04,15,16,42,22.30
2021,04,15,16,43,22.30
2021,04,15,16,44,22.30
2021,04,15,16,45,22.30
2021,04,15,16,46,22.30
2021,04,15,16,47,22.30
2021,04,15,16,48,22.30
2021,04,15,16,49,22.30
2021,04,15,16,50,22.30
2021,04,15,16,51,22.40
2021,04,15,16,52,22.40
2021,04,15,16,53,22.40
2021,04,15,16,54,22.40
2021,04,15,16,55,22.40
2021,04,15,16,56,22.50
2021,04,15,16,57,22.50
2021,04,15,16,58,22.50
2021,04,15,16,59,22.60
2021,04,15,17,00,22.60
2021,04,15,17,01,22.70
2021,04,15,17,02,22.70
2021,04,15,17,03,22.70
2021,04,15,17,04,22.70
2021,04,15,17,05,22.70
2021,04,15,17,06,22.70
2021,04,15,17,07,22.70
2021,04,15,17,08,22.70
2021,04,15,17,09,22.80
2021,04,15,17,10,22.80
2021,04,15,17,11,22.90
2021,04,15,17,12,22.90
2021,04,15,17,13,23.00
2021,04,15,17,14,23.00
2021,04,15,17,15,23.00
2021,04,15,17,16,23.00
2021,04,15,17,17,23.10
2021,04,15,17,18,23.10
2021,04,15,17,19,23.10
2021,04,15,17,20,23.10
2021,04,15,17,21,23.10
2021,04,15,17,22,23.00
2021,04,15,17,23,23.00
2021,04,15,17,24,22.90
2021,04,15,17,25,22.90
2021,04,15,17,26,22.80
2021,04,15,17,27,22.80
2021,04,15,17,28,22.80
2021,04,15,17,29,22.80
2021,04,15,17,30,22.80
2021,04,15,17,31,22.90
2021,04,15,17,32,22.90
2021,04,15,17,33,22.90
2021,04,15,17,34,22.90
2021,04,15,17,35,23.00